Cloud_Cover
100 100 100 99 100 100 100 100 100 97 100 100 80 5 14 32 100 100 94 17 5 5
100 100 100 100 100 100 100 100 11 5 16 100 100 96 35 33 100 100 89 6 5 5
100 100 100 100 100 100 100 68 57 96 91 92 99 98 72 95 94 68 100 90 19 5
100 100 100 100 100 100 100 75 91 92 89 100 92 15 35 20 49 100 88 100 54 5
76 65 42 97 68 65 20 64 74 37 100 31 5 15 5 35 100 100 96 100 8 5
100 100 100 52 4 2 42 28 5 54 80 52 5 30 100 84 57 70 95 41 5 5
84 46 54 14 5 5 5 12 5 35 92 70 32 5 5 7 15 8 32 26 22 7
86 5 5 5 7 5 5 5 77 77 62 88 52 38 51 18 46 13 28 6 47 5
88 100 100 100 98 100 66 89 66 70 13 21 47 49 76 6 7 36 82 31 5 5
100 100 98 94 90 67 72 100 83 60 40 18 28 66 38 7 6 14 29 34 5 7
9 7 10 14 23 39 35 38 8 7 8 28 51 59 79 52 37 11 5 5 5 4
5 5 5 5 5 5 7 16 26 27 9 5 5 5 5 5 5 4 5 5 6 11
43 14 5 5 5 5 5 5 5 9 5 5 5 5 5 5 5 5 5 6 77 100
5 5 5 5 5 5 5 5 5 5 5 6 36 67 70 81 42 13 5 30 99 100